User: anonymous   Login
Location: Vancouver
(49.2500°N, 123.1330°W)
Time: 21:13:33
(UTC-07:00)
Language:

JAS-1B - Orbit

View from above orbital plane
View from above orbital plane
View from above satellite
View from above satellite

Ground track
Ground track

The orbit data is extracted from the following two-line orbital elements,

1 20480U 90013C   17114.92612853 -.00000049 +00000-0 -42280-4 0  9992
2 20480 099.0454 258.0910 0540833 151.5573 211.6205 12.83415999274845
Epoch (UTC): 24 April 2017 22:13:37
Eccentricity: 0.0540833
inclination: 99.0454°
perigee height: 911 km
apogee height: 1744 km
right ascension of ascending node: 258.0910°
argument of perigee: 151.5573°
revolutions per day: 12.83415999
mean anomaly at epoch: 211.6205°
orbit number at epoch: 27484

The dashed part of the orbit path shows where the satellite is in the earth's shadow,  

DLR